Tracking 31027 objects as of 19-Jul-2025
HD Live streaming from Space Station
objects crossing your sky now

USA 313

Track USA 313 now!
10-day predictions


NORAD ID: 47295
Int'l Code: 2020-101B
Perigee: 443.6 km
Apogee: 454.5 km
Inclination: 53.0 °
Period: 93.4 minutes
Semi major axis: 6820 km
RCS: Unknown
Launch date: December 19, 2020
Source: United States (US)
Launch site: AIR FORCE EASTERN TEST RANGE (AFETR)
Your satellite tracking list
IRIDIUM 134
Track 1 satellite(s)




NASA's NSSDC Master Catalog

Two Line Element Set (TLE):
1 47295U 20101B   23148.85178512 0.00070000  00000-0  16435-2 0    07
2 47295  52.9951  94.9729 0008000  85.7004 274.2995 15.41419832    08
Source of the keplerian elements: McCants